Regional Weather Roundup
Issued by NWS

Home | Current Version | Previous Version | Text Only | Print | Product List | Glossary Off
Versions: 1 2 3 4 5 6 7 8 9 10 11 12 13 14 15 16 17 18 19 20 21 22 23 24 25 26 27 28 29 30 31 32 33 34 35 36 37 38 39 40 41 42 43 44 45 46 47 48 49 50

000
ASUS43 KBIS 222220
RWRND

NORTH DAKOTA REGIONAL WEATHER ROUNDUP
NATIONAL WEATHER SERVICE BISMARCK ND
500 PM CDT TUE JUL 22 2014

NOTE: "FAIR" INDICATES FEW OR NO CLOUDS BELOW 12,000 FEET WITH NO
SIGNIFICANT WEATHER AND/OR OBSTRUCTIONS TO VISIBILITY.


NDZ001>003-009>011-017-222300-
NORTHWEST NORTH DAKOTA

CITY           SKY/WX    TMP DP  RH WIND       PRES   REMARKS
WILLISTON      SUNNY     87  52  29 VRB7      30.17S
MINOT          MOSUNNY   76  60  57 VRB3      30.19F
MINOT AFB      MOSUNNY   77  60  57 NE7       30.19F
$$

NDZ018>021-031>035-040>046-222300-
SOUTHWEST NORTH DAKOTA

CITY           SKY/WX    TMP DP  RH WIND       PRES   REMARKS
BISMARCK       MOSUNNY   82  59  45 VRB6      30.20F
DICKINSON      SUNNY     77  61  57 E9        30.20F
GARRISON         N/A     78  62  57 SW3       30.20S
HETTINGER ARPT PTSUNNY   81  61  50 E12       30.21F
$$

NDZ004>008-012>016-024-026-027-054-222300-
NORTHEAST NORTH DAKOTA

CITY           SKY/WX    TMP DP  RH WIND       PRES   REMARKS
GRAND FORKS    MOSUNNY   77  59  53 N12       30.16S
GRND FRKS AFB  SUNNY     76  59  55 N12       30.18S
DEVILS LAKE    PTSUNNY   75  57  53 NW5       30.19S
$$

NDZ022-023-025-028>030-036>039-047>053-222300-
SOUTHEAST NORTH DAKOTA

CITY           SKY/WX    TMP DP  RH WIND       PRES   REMARKS
FARGO          SUNNY     79  57  46 N20       30.16R
JAMESTOWN      MOSUNNY   77  58  51 VRB6      30.19S
$$



USA.gov is the U.S. government's official web portal to all federal, state and local government web resources and services.